sat.trackr.live / text

‹ back to catalog

TEVEL2-9

NORAD 63237 · 2025-052AD

PAYLOAD ACTIVE UNKNOWN

§ Identity

Operator
Country
ISRA
Launch date
2025-03-15
Launch site
AFWTR
Launch vehicle
Mass (kg)
RCS (m²)

Purposes: comms

External: N2YO · Heavens-Above · Gunter

§ Orbital elements

Epoch: 2026-05-25T03:47:26.392704Z

Period
94.05 min
Inclination
97.3967°
Eccentricity
0.0004981
Mean motion
15.31084761 rev/d
Perigee alt
469.2 km
Apogee alt
476.0 km
Semi-major
6,850.7 km
B*
5.1499e-4
RAAN
40.5389°
Arg perigee
204.9300°
Mean anomaly
155.1701°
Rev number
6,650

§ Raw data

TEVEL2-91 63237U 25052AD  26145.15794436  .00015408  00000+0  51499-3 0  99902 63237  97.3967  40.5389 0004981 204.9300 155.1701 15.31084761 66506

JSON: /api/v1/satellites/63237 · /tle

For live sub-satellite position, see the globe view (requires WebGL).

§ Visibility from observer

Set your observer location to see the next 7 days of passes ≥ 10°. The values pass through the URL so the page stays shareable.

No JS? Fill the form by hand. The geolocation button needs JavaScript.

§ Radio — SatNOGS DB

ModeDescriptionDownlinkUplink
BPSK Mode U - BPSK9k6 G3RUH - Beacon 436.400 MHz
FM Mode V/U - FM Transponder 436.400 MHz 145.970 MHz

2 transmitters · refreshed weekly from db.satnogs.org